| time (UTC) | temp F | wind direction | speed MPH | gust MPH | rain 1hr in | rain 24hr in | rain mn in | humidity % | barometer mb |
| 20260509135134 | 57 | 106 | 1.0 | 2.0 | 0.00 | 0.00 | 0.00 | 80 | 1016.6 |
| 20260509134630 | 58 | 92 | 2.0 | 2.0 | 0.00 | 0.00 | 0.00 | 78 | 1016.9 |
| 20260509134128 | 57 | 137 | 1.0 | 1.0 | 0.00 | 0.00 | 0.00 | 82 | 1016.9 |
| 20260509133625 | 55 | 154 | 2.0 | 2.0 | 0.00 | 0.00 | 0.00 | 83 | 1016.8 |
| 20260509133122 | 56 | 154 | 2.0 | 2.0 | 0.00 | 0.00 | 0.00 | 82 | 1017.0 |
| 20260509132620 | 56 | 103 | 2.0 | 3.0 | 0.00 | 0.00 | 0.00 | 84 | 1016.9 |
| 20260509132118 | 55 | 140 | 2.0 | 3.0 | 0.00 | 0.00 | 0.00 | 84 | 1017.0 |
| 20260509131614 | 55 | 147 | 1.0 | 1.0 | 0.00 | 0.00 | 0.00 | 85 | 1017.1 |
| 20260509131111 | 54 | 173 | 0.0 | 1.0 | 0.00 | 0.00 | 0.00 | 86 | 1017.1 |
| 20260509130607 | 54 | 134 | 2.0 | 3.0 | 0.00 | 0.00 | 0.00 | 86 | 1017.2 |
| 20260509130104 | 54 | 149 | 2.0 | 3.0 | 0.00 | 0.00 | 0.00 | 87 | 1017.5 |
| 20260509125600 | 54 | 124 | 1.0 | 2.0 | 0.00 | 0.00 | 0.00 | 87 | 1017.3 |
| 20260509125057 | 53 | 175 | 0.0 | 0.0 | 0.00 | 0.00 | 0.00 | 88 | 1017.4 |
| 20260509124553 | 53 | 84 | 3.0 | 4.0 | 0.00 | 0.00 | 0.00 | 88 | 1017.2 |
| 20260509124051 | 53 | 176 | 0.0 | 1.0 | 0.00 | 0.00 | 0.00 | 89 | 1016.7 |
| 20260509123549 | 53 | 151 | 0.0 | 1.0 | 0.00 | 0.00 | 0.00 | 89 | 1017.4 |
| 20260509123045 | 53 | 141 | 0.0 | 1.0 | 0.00 | 0.00 | 0.00 | 89 | 1017.6 |
| 20260509122541 | 53 | 142 | 1.0 | 2.0 | 0.00 | 0.00 | 0.00 | 89 | 1017.7 |
| 20260509122038 | 53 | 141 | 2.0 | 2.0 | 0.00 | 0.00 | 0.00 | 89 | 1017.8 |
| 20260509121534 | 53 | 129 | 1.0 | 1.0 | 0.00 | 0.00 | 0.00 | 89 | 1017.6 |
| 20260509121032 | 53 | 145 | 1.0 | 1.0 | 0.00 | 0.00 | 0.00 | 89 | 1017.6 |
| 20260509120531 | 52 | 131 | 1.0 | 1.0 | 0.00 | 0.00 | 0.00 | 89 | 1017.6 |
| 20260509120028 | 52 | 138 | 1.0 | 1.0 | 0.00 | 0.00 | 0.00 | 88 | 1017.7 |
| 20260509115525 | 52 | 155 | 0.0 | 1.0 | 0.00 | 0.00 | 0.00 | 88 | 1017.8 |
| 20260509115023 | 52 | 158 | 0.0 | 0.0 | 0.00 | 0.00 | 0.00 | 88 | 1017.6 |
| 20260509114521 | 52 | 155 | 0.0 | 0.0 | 0.00 | 0.00 | 0.00 | 88 | 1017.6 |
| 20260509114020 | 52 | 126 | 0.0 | 1.0 | 0.00 | 0.00 | 0.00 | 88 | 1017.8 |
| 20260509113517 | 52 | 162 | 0.0 | 0.0 | 0.00 | 0.00 | 0.00 | 89 | 1017.8 |
| 20260509113015 | 52 | 95 | 2.0 | 3.0 | 0.00 | 0.00 | 0.00 | 89 | 1017.3 |
| 20260509112511 | 52 | 125 | 0.0 | 0.0 | 0.00 | 0.00 | 0.00 | 89 | 1017.9 |
| 20260509112008 | 52 | 114 | 1.0 | 2.0 | 0.00 | 0.00 | 0.00 | 89 | 1017.4 |
| 20260509111505 | 51 | 138 | 0.0 | 1.0 | 0.00 | 0.00 | 0.00 | 89 | 1017.6 |
| 20260509111002 | 51 | 112 | 1.0 | 1.0 | 0.00 | 0.00 | 0.00 | 89 | 1017.7 |
| 20260509110458 | 51 | 134 | 0.0 | 1.0 | 0.00 | 0.00 | 0.00 | 89 | 1017.4 |
| 20260509105956 | 51 | 96 | 2.0 | 2.0 | 0.00 | 0.00 | 0.00 | 89 | 1017.5 |
| 20260509105454 | 51 | 138 | 0.0 | 0.0 | 0.00 | 0.00 | 0.00 | 89 | 1017.6 |
| 20260509104951 | 51 | 144 | 0.0 | 0.0 | 0.00 | 0.00 | 0.00 | 89 | 1017.5 |
| 20260509104448 | 51 | 136 | 0.0 | 1.0 | 0.00 | 0.00 | 0.00 | 89 | 1017.3 |
| 20260509103945 | 50 | 143 | 0.0 | 0.0 | 0.00 | 0.00 | 0.00 | 90 | 1017.5 |
| 20260509103443 | 50 | 145 | 1.0 | 1.0 | 0.00 | 0.00 | 0.00 | 90 | 1017.4 |
| 20260509102941 | 50 | 145 | 0.0 | 0.0 | 0.00 | 0.00 | 0.00 | 90 | 1017.1 |
| 20260509102438 | 50 | 147 | 0.0 | 0.0 | 0.00 | 0.00 | 0.00 | 90 | 1017.1 |
| 20260509101934 | 50 | 88 | 1.0 | 2.0 | 0.00 | 0.00 | 0.00 | 90 | 1017.0 |
| 20260509101430 | 50 | 157 | 0.0 | 1.0 | 0.00 | 0.00 | 0.00 | 90 | 1017.0 |
| 20260509100928 | 50 | 149 | 0.0 | 0.0 | 0.00 | 0.00 | 0.00 | 90 | 1017.1 |
| 20260509100425 | 50 | 154 | 0.0 | 0.0 | 0.00 | 0.00 | 0.00 | 90 | 1017.0 |
| 20260509095921 | 50 | 162 | 0.0 | 0.0 | 0.00 | 0.00 | 0.00 | 90 | 1017.1 |
| 20260509095419 | 50 | 167 | 0.0 | 0.0 | 0.00 | 0.00 | 0.00 | 90 | 1017.3 |
| 20260509094916 | 50 | 155 | 0.0 | 0.0 | 0.00 | 0.00 | 0.00 | 90 | 1017.2 |
| 20260509094412 | 50 | 152 | 0.0 | 0.0 | 0.00 | 0.00 | 0.00 | 90 | 1017.0 |
| 20260509093910 | 50 | 167 | 0.0 | 0.0 | 0.00 | 0.00 | 0.00 | 90 | 1016.9 |
| 20260509093407 | 50 | 181 | 0.0 | 0.0 | 0.00 | 0.00 | 0.00 | 90 | 1016.9 |
| 20260509092906 | 50 | 181 | 0.0 | 0.0 | 0.00 | 0.00 | 0.00 | 90 | 1017.0 |
| 20260509092403 | 50 | 162 | 0.0 | 0.0 | 0.00 | 0.00 | 0.00 | 90 | 1016.8 |
| 20260509091901 | 50 | 181 | 0.0 | 0.0 | 0.00 | 0.00 | 0.00 | 90 | 1017.0 |
| 20260509091358 | 50 | 162 | 0.0 | 0.0 | 0.00 | 0.00 | 0.00 | 89 | 1017.0 |
| 20260509090855 | 50 | 203 | 0.0 | 1.0 | 0.00 | 0.00 | 0.00 | 89 | 1017.0 |
| 20260509090352 | 50 | 165 | 0.0 | 0.0 | 0.00 | 0.00 | 0.00 | 89 | 1017.0 |
| 20260509085850 | 50 | 164 | 0.0 | 0.0 | 0.00 | 0.00 | 0.00 | 89 | 1017.1 |
| 20260509085346 | 50 | 151 | 0.0 | 0.0 | 0.00 | 0.00 | 0.00 | 89 | 1017.1 |
| 20260509084843 | 50 | 160 | 0.0 | 0.0 | 0.00 | 0.00 | 0.00 | 89 | 1017.1 |
| 20260509084340 | 50 | 154 | 0.0 | 0.0 | 0.00 | 0.00 | 0.00 | 89 | 1017.2 |
| 20260509083838 | 50 | 144 | 0.0 | 0.0 | 0.00 | 0.00 | 0.00 | 89 | 1017.1 |
| 20260509083334 | 50 | 167 | 0.0 | 0.0 | 0.00 | 0.00 | 0.00 | 90 | 1017.3 |
| 20260509082831 | 50 | 166 | 0.0 | 0.0 | 0.00 | 0.00 | 0.00 | 90 | 1017.4 |
| 20260509082327 | 50 | 167 | 0.0 | 0.0 | 0.00 | 0.00 | 0.00 | 89 | 1017.5 |
| 20260509081825 | 50 | 166 | 0.0 | 0.0 | 0.00 | 0.00 | 0.00 | 89 | 1017.4 |
| 20260509081322 | 50 | 166 | 0.0 | 0.0 | 0.00 | 0.00 | 0.00 | 89 | 1017.4 |
| 20260509080820 | 50 | 175 | 0.0 | 0.0 | 0.00 | 0.00 | 0.00 | 89 | 1017.3 |
| 20260509080318 | 50 | 178 | 0.0 | 0.0 | 0.00 | 0.00 | 0.00 | 89 | 1017.5 |
| 20260509075816 | 50 | 201 | 0.0 | 1.0 | 0.00 | 0.00 | 0.00 | 89 | 1017.3 |
| 20260509075312 | 50 | 183 | 0.0 | 0.0 | 0.00 | 0.00 | 0.00 | 89 | 1017.3 |
| 20260509074809 | 50 | 183 | 0.0 | 0.0 | 0.00 | 0.00 | 0.00 | 89 | 1017.2 |
| 20260509074307 | 50 | 183 | 0.0 | 0.0 | 0.00 | 0.00 | 0.00 | 89 | 1017.3 |
| 20260509073803 | 50 | 158 | 0.0 | 0.0 | 0.00 | 0.00 | 0.00 | 89 | 1017.3 |
| 20260509073259 | 50 | 160 | 0.0 | 0.0 | 0.00 | 0.00 | 0.00 | 89 | 1017.2 |
| 20260509072756 | 50 | 165 | 0.0 | 0.0 | 0.00 | 0.00 | 0.00 | 89 | 1017.2 |
| 20260509072253 | 50 | 160 | 0.0 | 0.0 | 0.00 | 0.00 | 0.00 | 89 | 1017.0 |
| 20260509071750 | 50 | 181 | 0.0 | 0.0 | 0.00 | 0.00 | 0.00 | 89 | 1017.0 |
| 20260509071247 | 51 | 184 | 0.0 | 0.0 | 0.00 | 0.00 | 0.00 | 89 | 1017.1 |
| 20260509070744 | 50 | 184 | 0.0 | 0.0 | 0.00 | 0.00 | 0.00 | 89 | 1017.2 |
| 20260509070240 | 50 | 184 | 0.0 | 0.0 | 0.00 | 0.00 | 0.00 | 88 | 1017.4 |
| 20260509065737 | 50 | 185 | 0.0 | 0.0 | 0.00 | 0.00 | 0.00 | 88 | 1017.2 |
| 20260509065233 | 50 | 185 | 0.0 | 0.0 | 0.00 | 0.00 | 0.00 | 87 | 1017.4 |
| 20260509064729 | 50 | 185 | 0.0 | 0.0 | 0.00 | 0.00 | 0.00 | 87 | 1017.3 |
| 20260509064227 | 50 | 185 | 0.0 | 0.0 | 0.00 | 0.00 | 0.00 | 87 | 1017.2 |
| 20260509063724 | 50 | 185 | 0.0 | 0.0 | 0.00 | 0.00 | 0.00 | 86 | 1017.3 |
| 20260509041101 | 52 | 195 | 0.0 | 0.0 | 0.00 | 0.00 | 0.00 | 77 | 1017.7 |
| 20260509040600 | 52 | 195 | 0.0 | 0.0 | 0.00 | 0.00 | 0.00 | 77 | 1017.7 |
| 20260509040056 | 53 | 195 | 0.0 | 0.0 | 0.00 | 0.01 | 0.01 | 75 | 1018.0 |
| 20260509035553 | 53 | 195 | 0.0 | 0.0 | 0.00 | 0.01 | 0.01 | 75 | 1018.0 |
| 20260509035049 | 53 | 195 | 0.0 | 0.0 | 0.00 | 0.01 | 0.01 | 75 | 1018.0 |
| 20260509032449 | 54 | 192 | 0.0 | 0.0 | 0.00 | 0.01 | 0.01 | 73 | 1018.1 |
| 20260509031947 | 54 | 192 | 0.0 | 0.0 | 0.00 | 0.01 | 0.01 | 73 | 1018.1 |
| 20260509031443 | 54 | 180 | 0.0 | 0.0 | 0.00 | 0.01 | 0.01 | 72 | 1018.0 |
| 20260509030941 | 54 | 185 | 0.0 | 0.0 | 0.00 | 0.01 | 0.01 | 71 | 1018.0 |
| 20260509030439 | 54 | 185 | 0.0 | 0.0 | 0.00 | 0.01 | 0.01 | 71 | 1018.1 |
| 20260509025936 | 54 | 189 | 0.0 | 0.0 | 0.00 | 0.01 | 0.01 | 71 | 1017.8 |
| 20260509025431 | 54 | 182 | 0.0 | 0.0 | 0.00 | 0.01 | 0.01 | 71 | 1018.0 |
| 20260509024927 | 54 | 188 | 0.0 | 0.0 | 0.00 | 0.01 | 0.01 | 71 | 1018.1 |
| 20260509024423 | 54 | 180 | 0.0 | 0.0 | 0.00 | 0.01 | 0.01 | 71 | 1018.0 |
| 20260509023920 | 54 | 213 | 1.0 | 1.0 | 0.00 | 0.01 | 0.01 | 71 | 1017.8 |
| 20260509023417 | 54 | 184 | 0.0 | 1.0 | 0.00 | 0.01 | 0.01 | 71 | 1017.8 |
| 20260509022914 | 54 | 184 | 0.0 | 0.0 | 0.00 | 0.01 | 0.01 | 72 | 1017.7 |
| 20260509022411 | 54 | 180 | 0.0 | 0.0 | 0.00 | 0.01 | 0.01 | 71 | 1017.7 |
| 20260509021908 | 54 | 181 | 0.0 | 0.0 | 0.00 | 0.01 | 0.01 | 71 | 1017.9 |
| 20260509021405 | 53 | 181 | 0.0 | 0.0 | 0.00 | 0.01 | 0.01 | 72 | 1017.7 |
| 20260509020903 | 53 | 191 | 0.0 | 1.0 | 0.00 | 0.01 | 0.01 | 73 | 1017.9 |
| 20260509020401 | 53 | 176 | 0.0 | 0.0 | 0.00 | 0.01 | 0.01 | 74 | 1017.5 |
| 20260509015857 | 53 | 176 | 0.0 | 0.0 | 0.00 | 0.01 | 0.01 | 74 | 1017.7 |
| 20260509015356 | 53 | 176 | 0.0 | 0.0 | 0.00 | 0.01 | 0.01 | 74 | 1017.7 |
| 20260509014852 | 52 | 164 | 0.0 | 0.0 | 0.00 | 0.01 | 0.01 | 73 | 1017.6 |
| 20260509014349 | 52 | 163 | 0.0 | 0.0 | 0.00 | 0.01 | 0.01 | 74 | 1017.2 |
| 20260509013846 | 52 | 201 | 0.0 | 0.0 | 0.00 | 0.01 | 0.01 | 74 | 1017.3 |
| 20260509013342 | 52 | 201 | 0.0 | 0.0 | 0.00 | 0.01 | 0.01 | 74 | 1017.1 |
| 20260509012838 | 52 | 201 | 0.0 | 0.0 | 0.00 | 0.01 | 0.01 | 74 | 1017.2 |
| 20260509012335 | 52 | 201 | 0.0 | 0.0 | 0.00 | 0.01 | 0.01 | 73 | 1017.0 |
| 20260509011833 | 52 | 201 | 0.0 | 0.0 | 0.00 | 0.01 | 0.01 | 73 | 1017.1 |
| 20260509011330 | 52 | 201 | 0.0 | 0.0 | 0.00 | 0.01 | 0.01 | 73 | 1017.0 |
| 20260509010827 | 53 | 201 | 0.0 | 0.0 | 0.00 | 0.01 | 0.01 | 72 | 1016.8 |
| 20260509010324 | 52 | 201 | 0.0 | 0.0 | 0.00 | 0.01 | 0.01 | 72 | 1016.8 |
| 20260509005821 | 52 | 201 | 0.0 | 0.0 | 0.00 | 0.01 | 0.01 | 72 | 1016.7 |
| 20260509005320 | 52 | 201 | 0.0 | 0.0 | 0.00 | 0.01 | 0.01 | 71 | 1016.6 |
| 20260509004819 | 53 | 201 | 0.0 | 0.0 | 0.00 | 0.01 | 0.01 | 71 | 1016.6 |
| 20260509004315 | 53 | 201 | 0.0 | 0.0 | 0.00 | 0.01 | 0.01 | 70 | 1016.5 |
| 20260509003814 | 53 | 201 | 0.0 | 0.0 | 0.00 | 0.01 | 0.01 | 69 | 1016.4 |
| 20260509003312 | 53 | 201 | 0.0 | 0.0 | 0.00 | 0.01 | 0.01 | 68 | 1016.4 |
| 20260509002808 | 53 | 201 | 0.0 | 0.0 | 0.00 | 0.01 | 0.01 | 67 | 1016.2 |
| 20260509002306 | 53 | 201 | 0.0 | 0.0 | 0.00 | 0.01 | 0.01 | 65 | 1016.3 |
| 20260509001804 | 54 | 201 | 0.0 | 0.0 | 0.00 | 0.01 | 0.01 | 63 | 1016.4 |
| 20260509001259 | 55 | 201 | 0.0 | 0.0 | 0.00 | 0.01 | 0.01 | 62 | 1016.6 |
| 20260509000757 | 55 | 201 | 0.0 | 0.0 | 0.00 | 0.01 | 0.01 | 61 | 1016.5 |
| 20260509000256 | 56 | 201 | 0.0 | 0.0 | 0.00 | 0.01 | 0.01 | 60 | 1016.6 |
| 20260508235751 | 56 | 200 | 0.0 | 0.0 | 0.00 | 0.01 | 0.01 | 59 | 1016.3 |
| 20260508235242 | 57 | 216 | 1.0 | 1.0 | 0.00 | 0.01 | 0.01 | 58 | 1016.4 |
| 20260508234740 | 57 | 233 | 1.0 | 1.0 | 0.00 | 0.01 | 0.01 | 58 | 1016.3 |
| 20260508234235 | 57 | 198 | 0.0 | 1.0 | 0.00 | 0.01 | 0.01 | 57 | 1016.3 |
| 20260508233729 | 58 | 196 | 0.0 | 1.0 | 0.00 | 0.01 | 0.01 | 56 | 1016.2 |
| 20260508233227 | 58 | 218 | 1.0 | 1.0 | 0.00 | 0.01 | 0.01 | 55 | 1016.3 |
| 20260508232724 | 58 | 239 | 1.0 | 1.0 | 0.00 | 0.01 | 0.01 | 56 | 1016.1 |
| 20260508232221 | 58 | 245 | 2.0 | 2.0 | 0.00 | 0.01 | 0.01 | 55 | 1016.3 |
| 20260508231719 | 58 | 201 | 0.0 | 0.0 | 0.00 | 0.01 | 0.01 | 55 | 1016.2 |
| 20260508231215 | 58 | 243 | 1.0 | 1.0 | 0.00 | 0.01 | 0.01 | 55 | 1016.0 |
| 20260508230712 | 58 | 353 | 2.0 | 2.0 | 0.00 | 0.01 | 0.01 | 55 | 1015.9 |
| 20260508230208 | 58 | 206 | 0.0 | 1.0 | 0.00 | 0.01 | 0.01 | 55 | 1016.0 |
| 20260508225706 | 58 | 167 | 0.0 | 1.0 | 0.00 | 0.01 | 0.01 | 55 | 1015.8 |
| 20260508225202 | 58 | 246 | 2.0 | 2.0 | 0.00 | 0.01 | 0.01 | 54 | 1015.9 |
| 20260508224700 | 59 | 204 | 2.0 | 3.0 | 0.00 | 0.01 | 0.01 | 53 | 1016.0 |
| 20260508224157 | 59 | 302 | 5.0 | 7.0 | 0.00 | 0.01 | 0.01 | 53 | 1015.9 |
| 20260508223655 | 59 | 298 | 2.0 | 2.0 | 0.00 | 0.01 | 0.01 | 53 | 1016.0 |
| 20260508223152 | 59 | 216 | 1.0 | 2.0 | 0.00 | 0.01 | 0.01 | 54 | 1015.8 |
| 20260508222650 | 59 | 183 | 0.0 | 0.0 | 0.00 | 0.01 | 0.01 | 54 | 1015.8 |
| 20260508222147 | 59 | 196 | 1.0 | 2.0 | 0.00 | 0.01 | 0.01 | 54 | 1016.0 |
| 20260508221643 | 60 | 231 | 4.0 | 7.0 | 0.00 | 0.01 | 0.01 | 52 | 1015.8 |
| 20260508221138 | 61 | 217 | 1.0 | 2.0 | 0.00 | 0.01 | 0.01 | 51 | 1015.8 |
| 20260508220636 | 61 | 217 | 1.0 | 2.0 | 0.00 | 0.01 | 0.01 | 51 | 1015.8 |
| 20260508220132 | 60 | 134 | 2.0 | 3.0 | 0.00 | 0.01 | 0.01 | 53 | 1015.8 |
| 20260508215628 | 60 | 25 | 4.0 | 4.0 | 0.00 | 0.01 | 0.01 | 53 | 1015.9 |
| 20260508215125 | 60 | 193 | 4.0 | 4.0 | 0.00 | 0.01 | 0.01 | 51 | 1015.9 |
| 20260508214622 | 60 | 207 | 2.0 | 2.0 | 0.00 | 0.01 | 0.01 | 52 | 1015.7 |
| 20260508214119 | 60 | 277 | 2.0 | 3.0 | 0.00 | 0.01 | 0.01 | 54 | 1015.8 |
| 20260508213616 | 58 | 282 | 2.0 | 2.0 | 0.00 | 0.01 | 0.01 | 57 | 1016.1 |
| 20260508213112 | 58 | 233 | 2.0 | 2.0 | 0.00 | 0.01 | 0.01 | 57 | 1016.4 |
| 20260508212609 | 58 | 174 | 1.0 | 2.0 | 0.00 | 0.01 | 0.01 | 57 | 1016.2 |
| 20260508212105 | 58 | 285 | 4.0 | 4.0 | 0.00 | 0.01 | 0.01 | 57 | 1016.3 |
| 20260508211601 | 58 | 292 | 2.0 | 3.0 | 0.00 | 0.01 | 0.01 | 56 | 1016.3 |
| 20260508211057 | 59 | 329 | 3.0 | 3.0 | 0.00 | 0.01 | 0.01 | 56 | 1016.4 |
| 20260508210554 | 59 | 292 | 4.0 | 4.0 | 0.00 | 0.01 | 0.01 | 55 | 1016.3 |
| 20260508210051 | 58 | 228 | 1.0 | 1.0 | 0.00 | 0.01 | 0.01 | 56 | 1016.3 |
| 20260508205548 | 59 | 12 | 3.0 | 3.0 | 0.00 | 0.01 | 0.01 | 56 | 1016.3 |
| 20260508205044 | 59 | 153 | 2.0 | 3.0 | 0.00 | 0.01 | 0.01 | 56 | 1016.3 |
| 20260508204541 | 59 | 309 | 3.0 | 3.0 | 0.00 | 0.01 | 0.01 | 55 | 1016.1 |
| 20260508204037 | 59 | 279 | 3.0 | 4.0 | 0.00 | 0.01 | 0.01 | 55 | 1016.2 |
| 20260508203533 | 59 | 184 | 3.0 | 4.0 | 0.00 | 0.01 | 0.01 | 55 | 1016.2 |
| 20260508203029 | 58 | 22 | 3.0 | 3.0 | 0.00 | 0.01 | 0.01 | 55 | 1016.0 |
| 20260508202526 | 58 | 324 | 4.0 | 6.0 | 0.00 | 0.01 | 0.01 | 55 | 1016.0 |
| 20260508202023 | 59 | 341 | 3.0 | 4.0 | 0.00 | 0.01 | 0.01 | 54 | 1016.2 |
| 20260508201520 | 59 | 354 | 2.0 | 3.0 | 0.00 | 0.01 | 0.01 | 54 | 1016.1 |
| 20260508201017 | 59 | 213 | 5.0 | 8.0 | 0.00 | 0.01 | 0.01 | 55 | 1016.0 |
| 20260508200514 | 60 | 20 | 2.0 | 3.0 | 0.00 | 0.01 | 0.01 | 55 | 1015.8 |
| 20260508200009 | 59 | 173 | 1.0 | 1.0 | 0.00 | 0.01 | 0.01 | 56 | 1015.9 |
| 20260508195506 | 59 | 231 | 1.0 | 2.0 | 0.00 | 0.01 | 0.01 | 57 | 1016.1 |
| 20260508195003 | 58 | 346 | 4.0 | 6.0 | 0.00 | 0.01 | 0.01 | 57 | 1016.0 |
| 20260508194500 | 59 | 21 | 9.0 | 14.0 | 0.00 | 0.01 | 0.01 | 58 | 1016.2 |
| 20260508193957 | 60 | 335 | 4.0 | 7.0 | 0.00 | 0.01 | 0.01 | 58 | 1016.2 |
| 20260508193453 | 59 | 348 | 8.0 | 9.0 | 0.00 | 0.01 | 0.01 | 57 | 1016.3 |
| 20260508192950 | 58 | 271 | 1.0 | 2.0 | 0.00 | 0.01 | 0.01 | 57 | 1016.4 |
| 20260508192446 | 59 | 257 | 3.0 | 4.0 | 0.00 | 0.01 | 0.01 | 55 | 1016.3 |
| 20260508191943 | 57 | 325 | 1.0 | 2.0 | 0.00 | 0.01 | 0.01 | 58 | 1016.2 |
| 20260508191441 | 57 | 288 | 11.0 | 14.0 | 0.00 | 0.01 | 0.01 | 54 | 1016.3 |
| 20260508190937 | 57 | 305 | 6.0 | 10.0 | 0.00 | 0.01 | 0.01 | 52 | 1016.4 |
| 20260508190435 | 58 | 357 | 2.0 | 2.0 | 0.00 | 0.01 | 0.01 | 54 | 1016.2 |
| 20260508185931 | 59 | 136 | 2.0 | 2.0 | 0.00 | 0.01 | 0.01 | 52 | 1016.2 |
| 20260508185428 | 59 | 291 | 2.0 | 3.0 | 0.00 | 0.01 | 0.01 | 50 | 1016.1 |
| 20260508184925 | 59 | 286 | 2.0 | 3.0 | 0.00 | 0.01 | 0.01 | 50 | 1016.0 |
| 20260508184423 | 59 | 319 | 2.0 | 2.0 | 0.00 | 0.01 | 0.01 | 49 | 1016.0 |
| 20260508183919 | 59 | 332 | 4.0 | 4.0 | 0.00 | 0.01 | 0.01 | 47 | 1015.7 |
| 20260508183416 | 60 | 175 | 6.0 | 11.0 | 0.00 | 0.01 | 0.01 | 46 | 1015.8 |
| 20260508182911 | 60 | 273 | 2.0 | 3.0 | 0.00 | 0.01 | 0.01 | 48 | 1015.9 |
| 20260508182409 | 60 | 157 | 1.0 | 2.0 | 0.00 | 0.01 | 0.01 | 49 | 1015.9 |
| 20260508181904 | 59 | 216 | 1.0 | 2.0 | 0.00 | 0.01 | 0.01 | 50 | 1015.9 |
| 20260508181401 | 58 | 178 | 3.0 | 7.0 | 0.00 | 0.01 | 0.01 | 49 | 1015.9 |
| 20260508180858 | 58 | 202 | 2.0 | 3.0 | 0.00 | 0.01 | 0.01 | 49 | 1015.9 |
| 20260508180355 | 59 | 85 | 8.0 | 15.0 | 0.00 | 0.01 | 0.01 | 48 | 1015.9 |
| 20260508175850 | 59 | 211 | 7.0 | 9.0 | 0.00 | 0.01 | 0.01 | 47 | 1015.8 |
| 20260508175348 | 59 | 200 | 2.0 | 3.0 | 0.00 | 0.01 | 0.01 | 48 | 1015.8 |
| 20260508174846 | 60 | 187 | 2.0 | 2.0 | 0.00 | 0.01 | 0.01 | 47 | 1015.9 |
| 20260508174343 | 60 | 189 | 6.0 | 9.0 | 0.00 | 0.01 | 0.01 | 46 | 1015.7 |
| 20260508173839 | 60 | 329 | 3.0 | 3.0 | 0.00 | 0.01 | 0.01 | 47 | 1015.8 |
| 20260508173336 | 60 | 186 | 4.0 | 4.0 | 0.00 | 0.01 | 0.01 | 46 | 1015.9 |
| 20260508172832 | 60 | 288 | 4.0 | 6.0 | 0.00 | 0.01 | 0.01 | 46 | 1015.8 |
| 20260508172329 | 62 | 164 | 2.0 | 3.0 | 0.00 | 0.01 | 0.01 | 46 | 1015.8 |
| 20260508171825 | 60 | 330 | 3.0 | 3.0 | 0.00 | 0.01 | 0.01 | 47 | 1015.7 |
| 20260508171322 | 60 | 204 | 6.0 | 8.0 | 0.00 | 0.01 | 0.01 | 45 | 1015.9 |
| 20260508170819 | 60 | 306 | 3.0 | 6.0 | 0.00 | 0.01 | 0.01 | 45 | 1016.0 |
| 20260508170317 | 60 | 182 | 4.0 | 7.0 | 0.00 | 0.01 | 0.01 | 45 | 1015.8 |
| 20260508165813 | 60 | 266 | 2.0 | 2.0 | 0.00 | 0.01 | 0.01 | 46 | 1015.8 |
| 20260508165311 | 60 | 263 | 6.0 | 7.0 | 0.00 | 0.01 | 0.01 | 45 | 1015.8 |
| 20260508164806 | 61 | 192 | 2.0 | 3.0 | 0.00 | 0.01 | 0.01 | 46 | 1015.8 |
| 20260508164303 | 60 | 298 | 6.0 | 8.0 | 0.00 | 0.01 | 0.01 | 45 | 1015.9 |
| 20260508163801 | 60 | 222 | 7.0 | 8.0 | 0.00 | 0.01 | 0.01 | 45 | 1016.2 |
| 20260508163259 | 60 | 199 | 4.0 | 4.0 | 0.00 | 0.01 | 0.01 | 45 | 1016.0 |
| 20260508162754 | 60 | 210 | 7.0 | 9.0 | 0.00 | 0.01 | 0.01 | 43 | 1016.2 |
| 20260508162251 | 60 | 165 | 5.0 | 7.0 | 0.00 | 0.01 | 0.01 | 45 | 1016.2 |
| 20260508161748 | 60 | 233 | 3.0 | 4.0 | 0.00 | 0.01 | 0.01 | 45 | 1016.3 |
| 20260508161245 | 59 | 224 | 3.0 | 6.0 | 0.00 | 0.01 | 0.01 | 46 | 1016.4 |
| 20260508160743 | 59 | 208 | 2.0 | 3.0 | 0.00 | 0.01 | 0.01 | 46 | 1016.3 |
| 20260508160241 | 59 | 235 | 5.0 | 7.0 | 0.00 | 0.01 | 0.01 | 46 | 1016.3 |
| 20260508155737 | 60 | 298 | 3.0 | 4.0 | 0.00 | 0.01 | 0.01 | 46 | 1016.5 |
| 20260508155235 | 59 | 220 | 3.0 | 3.0 | 0.00 | 0.01 | 0.01 | 44 | 1016.5 |
| 20260508154732 | 59 | 280 | 4.0 | 4.0 | 0.00 | 0.01 | 0.01 | 44 | 1016.7 |
| 20260508154229 | 60 | 274 | 4.0 | 7.0 | 0.00 | 0.01 | 0.01 | 45 | 1016.3 |
| 20260508153725 | 60 | 143 | 3.0 | 4.0 | 0.00 | 0.01 | 0.01 | 44 | 1016.5 |
| 20260508153222 | 60 | 232 | 2.0 | 2.0 | 0.00 | 0.01 | 0.01 | 42 | 1016.5 |
| 20260508152719 | 61 | 239 | 9.0 | 10.0 | 0.00 | 0.01 | 0.01 | 43 | 1016.4 |
| 20260508152215 | 60 | 186 | 1.0 | 1.0 | 0.00 | 0.01 | 0.01 | 44 | 1016.4 |
| 20260508151712 | 59 | 6 | 2.0 | 4.0 | 0.00 | 0.01 | 0.01 | 45 | 1016.6 |
| 20260508151208 | 60 | 311 | 5.0 | 7.0 | 0.00 | 0.01 | 0.01 | 44 | 1016.5 |
| 20260508150705 | 59 | 319 | 4.0 | 4.0 | 0.00 | 0.01 | 0.01 | 46 | 1016.4 |
| 20260508150202 | 58 | 265 | 3.0 | 3.0 | 0.00 | 0.01 | 0.01 | 47 | 1016.9 |
| 20260508145658 | 58 | 245 | 4.0 | 6.0 | 0.00 | 0.01 | 0.01 | 45 | 1016.7 |
| 20260508145154 | 58 | 304 | 3.0 | 3.0 | 0.00 | 0.01 | 0.01 | 45 | 1016.7 |
| 20260508144652 | 58 | 65 | 3.0 | 6.0 | 0.00 | 0.01 | 0.01 | 45 | 1016.9 |
| 20260508144149 | 59 | 314 | 3.0 | 6.0 | 0.00 | 0.01 | 0.01 | 47 | 1016.8 |
| 20260508143646 | 58 | 204 | 2.0 | 3.0 | 0.00 | 0.01 | 0.01 | 51 | 1016.8 |
| 20260508143143 | 57 | 177 | 0.0 | 0.0 | 0.00 | 0.01 | 0.01 | 54 | 1017.0 |
| 20260508142639 | 56 | 346 | 3.0 | 4.0 | 0.00 | 0.01 | 0.01 | 52 | 1016.9 |
| 20260508142136 | 58 | 245 | 6.0 | 7.0 | 0.00 | 0.01 | 0.01 | 51 | 1017.1 |
| 20260508141633 | 57 | 152 | 3.0 | 3.0 | 0.00 | 0.01 | 0.01 | 52 | 1017.0 |
| 20260508141131 | 57 | 279 | 3.0 | 4.0 | 0.00 | 0.01 | 0.01 | 53 | 1016.6 |
| 20260508140628 | 56 | 201 | 2.0 | 3.0 | 0.00 | 0.01 | 0.01 | 55 | 1017.0 |
| 20260508140125 | 57 | 313 | 1.0 | 2.0 | 0.00 | 0.01 | 0.01 | 54 | 1016.8 |
| 20260508135620 | 56 | 231 | 2.0 | 2.0 | 0.00 | 0.01 | 0.01 | 52 | 1016.8 |